Zurück zum Katalog

SCOUT A-1 DEB

AktivPO
NORAD 15764·DEBRIS·🇺🇸 United States

Gestartet Oct 30, 1973 von Vandenberg Space Force Base

Loading…

Nächste Überflüge (nächste 24 Stunden)

TLE

AktuellSource: Space-Track

Epoche: Sep 14, 2026, 12:46 UTC

1 15764U 73081C   26257.53195876  .00000152  00000-0  16049-3 0  9999
2 15764  90.4765 282.1898 0179737 271.6192 244.1284 13.65552385148658

Verfolge SCOUT A-1 DEB in Echtzeit mit AllMySat

Download on the App Store